Date String (YYYY-MM-DD hh:mm:ss) UTC,Instrument flags,Ambient pressure (hPa),Sample flow (lpm),Bypass flow (lpm),Sample temperature (°C),Ambient temperature (°C),ASC tube jacket temperature (°C),LED temperature (°C),Box temperature (°C),Sample RH (%),Span deviation,Mass concentration (μg/m³),Mass concentration (μg/m³),Mass concentration (μg/m³)
DateTimeUTC,F1_M11,P_M11,Q1_M11,Q2_M11,T1_M11,T2_M11,T3_M11,T4_M11,T5_M11,U1_M11,ZSPAN_M11,X0_M11,X2_M11,X1_M11
2023-01-25 18:00:00,,0827.7,5.00,0.00,21.5,20.1,00.0,30.2,23.0,11.1,0000.0,0007.06,0003.68,0003.30
2023-01-25 18:01:00,,0827.7,5.02,0.00,21.4,19.8,00.0,30.2,22.9,11.1,0000.0,0007.59,0003.67,0003.29
2023-01-25 18:02:00,,0827.7,5.02,0.00,21.4,19.6,00.0,30.2,22.9,11.4,0000.0,0007.52,0003.66,0003.31
2023-01-25 18:03:00,,0827.7,5.00,0.00,21.4,19.5,00.0,30.2,22.8,11.4,0000.0,0007.48,0003.66,0003.33
2023-01-25 18:04:00,,0827.7,5.01,0.00,21.3,19.3,00.0,30.2,22.7,11.4,0000.0,0007.59,0003.68,0003.34
2023-01-25 18:05:00,,0827.7,5.00,0.00,21.3,19.3,00.0,30.2,22.7,11.6,0000.0,0008.10,0003.67,0003.36
2023-01-25 18:06:00,,0827.7,4.99,0.00,21.3,19.2,00.0,30.2,22.7,11.7,0000.0,0008.30,0003.65,0003.37
2023-01-25 18:07:00,,0827.7,5.01,0.00,21.2,19.4,00.0,30.1,22.7,11.5,0000.0,0008.63,0003.62,0003.36
2023-01-25 18:08:00,,0827.7,4.98,0.00,21.3,20.7,00.0,30.1,23.0,11.4,0000.0,0008.49,0003.59,0003.35
2023-01-25 18:09:00,,0827.7,5.01,0.00,21.4,22.0,00.0,30.1,23.3,11.4,0000.0,0008.35,0003.59,0003.35
2023-01-25 18:10:00,,0827.7,4.99,0.00,21.5,21.9,00.0,30.2,23.4,11.4,0000.0,0008.25,0003.60,0003.34
2023-01-25 18:11:00,,0827.7,5.00,0.00,21.5,21.2,00.0,30.2,23.2,11.2,0000.0,0008.42,0003.60,0003.33
2023-01-25 18:12:00,,0827.7,5.00,0.00,21.5,20.5,00.0,30.2,23.0,11.2,0000.0,0008.38,0003.59,0003.33
2023-01-25 18:13:00,,0827.7,4.99,0.00,21.4,20.0,00.0,30.2,22.9,11.3,0000.0,0008.54,0003.57,0003.31
2023-01-25 18:14:00,,0827.7,5.00,0.00,21.4,19.7,00.0,30.2,22.8,11.5,0000.0,0008.59,0003.57,0003.30
2023-01-25 18:15:00,,0827.7,5.00,0.00,21.3,19.4,00.0,30.2,22.7,11.6,0000.0,0008.46,0003.54,0003.27
2023-01-25 18:16:00,,0827.7,5.02,0.00,21.3,19.3,00.0,30.2,22.7,11.8,0000.0,0008.42,0003.52,0003.26
2023-01-25 18:17:00,,0827.7,5.00,0.00,21.3,19.3,00.0,30.1,22.7,11.7,0000.0,0008.38,0003.53,0003.23
2023-01-25 18:18:00,,0827.7,4.99,0.00,21.2,19.3,00.0,30.1,22.6,11.5,0000.0,0007.99,0003.56,0003.22
2023-01-25 18:19:00,,0827.7,5.01,0.00,21.2,19.2,00.0,30.1,22.6,11.6,0000.0,0008.09,0003.57,0003.22
2023-01-25 18:20:00,,0827.7,4.99,0.00,21.2,19.6,00.0,30.1,22.7,11.8,0000.0,0008.06,0003.56,0003.22
2023-01-25 18:21:00,,0827.7,5.01,0.00,21.3,21.1,00.0,30.1,23.0,11.7,0000.0,0008.03,0003.52,0003.20
2023-01-25 18:22:00,,0827.7,5.00,0.00,21.4,22.2,00.0,30.1,23.3,11.6,0000.0,0008.04,0003.50,0003.18
2023-01-25 18:23:00,,0827.7,4.98,0.00,21.5,21.8,00.0,30.2,23.3,11.4,0000.0,0007.51,0003.47,0003.16
2023-01-25 18:24:00,,0827.6,5.01,0.00,21.5,21.3,00.0,30.2,23.2,11.1,0000.0,0007.21,0003.43,0003.13
2023-01-25 18:25:00,,0827.5,5.00,0.00,21.5,20.8,00.0,30.2,23.2,11.2,0000.0,0007.09,0003.40,0003.08
2023-01-25 18:26:00,,0827.5,5.00,0.00,21.5,20.4,00.0,30.2,23.1,11.3,0000.0,0007.19,0003.39,0003.03
2023-01-25 18:27:00,,0827.6,5.00,0.00,21.4,20.0,00.0,30.2,23.0,11.3,0000.0,0006.63,0003.35,0002.97
2023-01-25 18:28:00,,0827.5,5.02,0.00,21.4,19.8,00.0,30.2,23.0,11.4,0000.0,0006.54,0003.30,0002.91
2023-01-25 18:29:00,,0827.6,4.99,0.00,21.4,19.7,00.0,30.2,22.9,11.5,0000.0,0007.38,0003.21,0002.84
2023-01-25 18:30:00,,0827.5,5.00,0.00,21.4,19.7,00.0,30.2,22.9,11.5,0000.0,0007.38,0003.18,0002.79
2023-01-25 18:31:00,,0827.5,5.01,0.00,21.4,19.6,00.0,30.2,22.9,11.6,0000.0,0007.49,0003.18,0002.72
2023-01-25 18:32:00,,0827.5,5.02,0.00,21.3,19.5,00.0,30.2,22.9,11.5,0000.0,0007.49,0003.17,0002.68
2023-01-25 18:33:00,,0827.6,4.99,0.00,21.3,19.4,00.0,30.2,22.8,11.1,0000.0,0007.52,0003.14,0002.61
2023-01-25 18:34:00,,0827.5,5.00,0.00,21.3,19.3,00.0,30.2,22.8,11.0,0000.0,0007.96,0003.14,0002.57
2023-01-25 18:35:00,,0827.5,5.01,0.00,21.3,19.7,00.0,30.2,22.8,11.0,0000.0,0008.49,0003.09,0002.52
2023-01-25 18:36:00,,0827.5,5.00,0.00,21.4,21.2,00.0,30.1,23.1,10.7,0000.0,0008.83,0003.05,0002.46
2023-01-25 18:37:00,,0827.5,5.00,0.00,21.5,22.2,00.0,30.2,23.4,10.1,0000.0,0008.88,0002.96,0002.39
2023-01-25 18:38:00,,0827.5,4.99,0.00,21.6,21.8,00.0,30.2,23.4,10.0,0000.0,0008.85,0002.87,0002.31
2023-01-25 18:39:00,,0827.4,5.01,0.00,21.6,21.2,00.0,30.2,23.3,09.9,0000.0,0008.66,0002.83,0002.25
2023-01-25 18:40:00,,0827.4,5.00,0.00,21.6,20.7,00.0,30.3,23.2,09.6,0000.0,0007.87,0002.80,0002.18
2023-01-25 18:41:00,,0827.4,5.00,0.00,21.5,20.3,00.0,30.3,23.1,09.8,0000.0,0007.73,0002.69,0002.10
2023-01-25 18:42:00,,0827.4,5.00,0.00,21.5,20.1,00.0,30.3,23.1,09.7,0000.0,0007.59,0002.56,0002.03
2023-01-25 18:43:00,,0827.4,4.99,0.00,21.5,19.9,00.0,30.3,23.0,09.7,0000.0,0007.54,0002.48,0001.98
2023-01-25 18:44:00,,0827.4,5.00,0.00,21.5,19.8,00.0,30.3,23.0,09.9,0000.0,0007.22,0002.43,0001.94
2023-01-25 18:45:00,,0827.4,4.99,0.00,21.4,19.8,00.0,30.2,23.1,09.9,0000.0,0006.97,0002.35,0001.88
2023-01-25 18:46:00,,0827.4,5.01,0.00,21.4,19.8,00.0,30.2,23.1,09.7,0000.0,0006.77,0002.29,0001.84
2023-01-25 18:47:00,,0827.4,4.99,0.00,21.4,19.8,00.0,30.2,23.0,09.8,0000.0,0006.00,0002.21,0001.80
2023-01-25 18:48:00,,0827.4,4.99,0.00,21.4,19.8,00.0,30.2,23.0,09.7,0000.0,0005.55,0002.17,0001.78
2023-01-25 18:49:00,,0827.4,4.99,0.00,21.4,19.7,00.0,30.2,23.0,09.5,0000.0,0005.18,0002.16,0001.77
2023-01-25 18:50:00,,0827.4,5.01,0.00,21.4,19.7,00.0,30.2,23.0,09.3,0000.0,0005.07,0002.16,0001.77
2023-01-25 18:51:00,,0827.4,5.00,0.00,21.4,19.7,00.0,30.2,23.0,09.3,0000.0,0005.12,0002.14,0001.78
2023-01-25 18:52:00,,0827.4,4.99,0.00,21.4,19.7,00.0,30.2,23.0,09.3,0000.0,0005.20,0002.18,0001.79
2023-01-25 18:53:00,,0827.3,5.00,0.00,21.4,19.7,00.0,30.2,23.0,09.4,0000.0,0005.16,0002.19,0001.78
2023-01-25 18:54:00,,0827.2,4.98,0.00,21.4,19.7,00.0,30.2,23.0,09.4,0000.0,0005.19,0002.18,0001.77
2023-01-25 18:55:00,,0827.3,5.00,0.00,21.3,19.8,00.0,30.2,22.9,09.5,0000.0,0005.18,0002.23,0001.77
2023-01-25 18:56:00,,0827.2,5.02,0.00,21.4,21.1,00.0,30.2,23.2,09.3,0000.0,0004.78,0002.20,0001.78
2023-01-25 18:57:00,,0827.2,5.00,0.00,21.6,22.3,00.0,30.2,23.5,09.1,0000.0,0003.43,0002.21,0001.79
2023-01-25 18:58:00,,0827.2,4.99,0.00,21.7,22.3,00.0,30.3,23.7,09.1,0000.0,0003.52,0002.26,0001.81
2023-01-25 18:59:00,,0827.2,5.00,0.00,21.7,21.7,00.0,30.3,23.6,09.1,0000.0,0003.60,0002.28,0001.82
